STARLINK-1661, 46355

Orbit data source: Space-Track

STARLINK-1661, 46355 is a payload satellite owned by SpaceX/Seattle (US) in LEO that was launched on Thu, 03 Sep 2020 UTC via an FALCON 9 launch vehicle from the Air Force Eastern Test Range (AFETR). Payload-class satellites include a variety of spacecraft equipped with specific instruments for various scientific and technological missions. These include communications satellites like Starlink; space stations such as the ISS; scientific satellites like the Hubble; Earth observation satellites from companies like Planet Labs, Umbra, and HawkEye 360; GPS; miniature CubeSats for education and research; and military/defense satellites.

Loading next visibility...
Identifier
46355, 2020-062AG
Orbit
LEO
Country
Flag of USUS
Related business
Manufacturer
SpaceX/Seattle
Mission
Partially operational Commercial Communications
Bus & Motor
STARLINK, Unknown motor
Mass
260 kg wet, ~248 kg dry
Launch date (UTC)
2020-09-03 (6 years ago)
Launch vehicle
FALCON 9
Launch site
Air Force Eastern Test Range (AFETR)
Object type
Payload
Rocket body
Debris
Shape & HBR
Box + 1 Pan, 10.1 m
Radar Cross Section
13.562 m², Large (>1 m²)

Expand to show TLE details & history
Last TLE update: 14 hours ago

TLE from 14 hours ago
0 STARLINK-1661
1 46355U 20062AG  26235.57821268  .00033397  00000-0  68463-3 0  9995
2 46355  53.1526 306.8734 0002943  39.2764 320.8456 15.45777532330074
Epoch: 2026-08-23T13:52Z
TLE epoch observation values (Epoch: 2026-08-23T13:52:37.575Z)
Latitude
-0.00007°
Longitude
126.84453°
Altitude
428.446 km
Speed
7.657 km/s
True Right ascension
20h 27m 29s
True Declination
0° 00' 00"
Sunlit
Object was in full shadow at epoch
Visualization orbit readout
Latitude
Unknown
Longitude
Unknown
Altitude
Unknown
Speed
Unknown
Apparent Right ascension
Unknown
Apparent Declination
Unknown
Sunlit
N/A
Visualization observer readout
Local Sidereal Time
19:30:23
Azimuth
Unknown
Elevation
Unknown
Doppler factor
Unknown
Orbital elements
Apogee altitude
431.357 km
Perigee altitude
427.35 km
Semi-major axis
6,807.491 km
Eccentricity
0.00029
Inclination
53.1526°
RAAN
306.8734°
Arg. of periapsis
39.2764°
True anomaly
320.8243°
Mean anomaly
320.8456°
Eccentric anomaly
320.83495°
Mean motion
3.86423 °/min
Orbital period
93.16 mins
BSTAR
0.00068463
Loading maneuver chart data...
Computing Atmospheric mass density...

Documentation

Showing up to 5 results
|